TimeEST,TemperatureF,Dew PointF,Humidity,Sea Level PressureIn,VisibilityMPH,Wind Direction,Wind SpeedMPH,Gust SpeedMPH,PrecipitationIn,Events,Conditions,WindDirDegrees,DateUTC
12:13 AM,33.8,30.2,87,30.28,4.0,Calm,Calm,-,N/A,,Overcast,0,2012-12-04 05:13:00
12:15 AM,33.8,32.0,93,30.28,1.5,Calm,Calm,-,N/A,,Overcast,0,2012-12-04 05:15:00
12:20 AM,32.0,30.2,93,30.29,0.2,Calm,Calm,-,N/A,Fog,Fog,0,2012-12-04 05:20:00
12:39 AM,32.0,30.2,93,30.28,0.5,Calm,Calm,-,N/A,Fog,Fog,0,2012-12-04 05:39:00
12:56 AM,32.0,30.9,96,30.29,0.2,Calm,Calm,-,N/A,Fog,Fog,0,2012-12-04 05:56:00
1:22 AM,32.0,32.0,100,30.28,0.5,Calm,Calm,-,N/A,Fog,Fog,0,2012-12-04 06:22:00
1:33 AM,30.2,30.2,100,30.28,2.0,Calm,Calm,-,N/A,,Overcast,0,2012-12-04 06:33:00
1:41 AM,30.2,30.2,100,30.28,10.0,Calm,Calm,-,N/A,,Overcast,0,2012-12-04 06:41:00
1:47 AM,32.0,30.2,93,30.28,1.8,Calm,Calm,-,N/A,,Overcast,0,2012-12-04 06:47:00
1:54 AM,32.0,30.2,93,30.28,3.0,Calm,Calm,-,N/A,,Mostly Cloudy,0,2012-12-04 06:54:00
1:56 AM,32.0,30.9,96,30.29,5.0,Calm,Calm,-,N/A,,Mostly Cloudy,0,2012-12-04 06:56:00
2:27 AM,32.0,30.2,93,30.28,1.2,Calm,Calm,-,N/A,,Overcast,0,2012-12-04 07:27:00
2:32 AM,32.0,30.2,93,30.28,0.2,Calm,Calm,-,N/A,Fog,Fog,0,2012-12-04 07:32:00
2:41 AM,32.0,30.2,93,30.29,1.0,Calm,Calm,-,N/A,,Mist,0,2012-12-04 07:41:00
2:53 AM,30.2,30.2,100,30.29,0.8,Calm,Calm,-,N/A,,Mist,0,2012-12-04 07:53:00
2:56 AM,30.0,30.0,100,30.29,1.2,Calm,Calm,-,N/A,,Overcast,0,2012-12-04 07:56:00
3:00 AM,30.2,30.2,100,30.29,3.0,Calm,Calm,-,N/A,,Overcast,0,2012-12-04 08:00:00
3:03 AM,32.0,30.2,93,30.29,1.8,Calm,Calm,-,N/A,,Overcast,0,2012-12-04 08:03:00
3:09 AM,32.0,30.2,93,30.29,0.2,Calm,Calm,-,N/A,Fog,Fog,0,2012-12-04 08:09:00
3:27 AM,30.2,30.2,100,30.28,0.8,Calm,Calm,-,N/A,,Mist,0,2012-12-04 08:27:00
3:48 AM,30.2,30.2,100,30.28,1.2,Calm,Calm,-,N/A,,Overcast,0,2012-12-04 08:48:00
3:56 AM,30.9,30.9,100,30.29,1.2,Calm,Calm,-,N/A,,Overcast,0,2012-12-04 08:56:00
4:01 AM,30.2,30.2,100,30.28,0.5,Calm,Calm,-,N/A,Fog,Light Freezing Fog,0,2012-12-04 09:01:00
4:41 AM,30.2,30.2,100,30.29,0.2,Calm,Calm,-,N/A,Fog,Light Freezing Fog,0,2012-12-04 09:41:00
4:56 AM,30.9,30.9,100,30.30,0.2,Calm,Calm,-,N/A,Fog,Light Freezing Fog,0,2012-12-04 09:56:00
5:37 AM,32.0,32.0,100,30.29,1.0,ESE,3.5,-,N/A,,Mist,110,2012-12-04 10:37:00
5:56 AM,33.1,33.1,100,30.31,0.8,Calm,Calm,-,N/A,,Mist,0,2012-12-04 10:56:00
6:16 AM,33.8,33.8,100,30.31,1.2,Calm,Calm,-,N/A,,Scattered Clouds,0,2012-12-04 11:16:00
6:23 AM,33.8,33.8,100,30.31,0.8,Calm,Calm,-,N/A,,Mist,0,2012-12-04 11:23:00
6:34 AM,32.0,32.0,100,30.31,0.2,Calm,Calm,-,N/A,Fog,Fog,0,2012-12-04 11:34:00
6:56 AM,33.1,32.0,96,30.32,0.2,Calm,Calm,-,N/A,Fog,Fog,0,2012-12-04 11:56:00
7:05 AM,32.0,32.0,100,30.32,0.2,Calm,Calm,-,N/A,Fog,Fog,0,2012-12-04 12:05:00
7:52 AM,41.0,39.2,93,30.33,10.0,Calm,Calm,-,N/A,,Scattered Clouds,0,2012-12-04 12:52:00
7:56 AM,41.0,41.0,100,30.34,10.0,Calm,Calm,-,N/A,,Scattered Clouds,0,2012-12-04 12:56:00
8:56 AM,48.0,46.9,96,30.32,10.0,SSE,5.8,-,N/A,,Clear,160,2012-12-04 13:56:00
9:56 AM,50.0,46.9,89,30.31,10.0,SSE,9.2,-,N/A,,Clear,160,2012-12-04 14:56:00
10:56 AM,52.0,46.9,83,30.29,10.0,South,8.1,-,N/A,,Clear,180,2012-12-04 15:56:00
11:56 AM,54.0,48.0,80,30.27,10.0,South,11.5,17.3,N/A,,Overcast,190,2012-12-04 16:56:00
12:56 PM,50.0,46.9,89,30.25,10.0,South,9.2,-,N/A,,Overcast,190,2012-12-04 17:56:00
1:56 PM,50.0,46.9,89,30.23,10.0,SSW,9.2,-,N/A,,Overcast,200,2012-12-04 18:56:00
2:56 PM,50.0,46.9,89,30.22,10.0,South,6.9,-,N/A,,Overcast,190,2012-12-04 19:56:00
3:56 PM,51.1,48.0,89,30.21,10.0,South,5.8,-,N/A,,Overcast,170,2012-12-04 20:56:00
4:56 PM,50.0,46.9,89,30.20,10.0,South,6.9,-,0.00,Rain,Light Rain,180,2012-12-04 21:56:00
5:56 PM,48.9,46.9,93,30.19,10.0,South,4.6,-,0.00,,Overcast,170,2012-12-04 22:56:00
6:56 PM,48.9,46.9,93,30.17,10.0,South,3.5,-,N/A,,Mostly Cloudy,180,2012-12-04 23:56:00
7:56 PM,50.0,48.0,93,30.15,10.0,South,4.6,-,N/A,,Scattered Clouds,190,2012-12-05 00:56:00
8:56 PM,50.0,48.9,96,30.12,10.0,South,9.2,17.3,N/A,,Mostly Cloudy,180,2012-12-05 01:56:00
9:56 PM,51.1,48.9,92,30.10,10.0,South,8.1,-,N/A,,Clear,180,2012-12-05 02:56:00
10:56 PM,51.1,48.9,92,30.07,10.0,South,6.9,-,N/A,,Mostly Cloudy,170,2012-12-05 03:56:00
11:56 PM,53.1,50.0,89,30.04,10.0,SSW,13.8,-,N/A,,Overcast,200,2012-12-05 04:56:00